Location: �perlecques
(50.8057°N, 2.1521°E)
Time: 06:33:32
(UTC+00:00)

Courier 1B - Pass Details

Date: 01 August 2021
Orbit: 963 x 1209 km, 28.3° (Epoch: 25 September)

Event Time Altitude Azimuth Distance (km) Brightness Sun altitude
Rises 20:33:44 0° 230° (SW) 4,094 10.9 -8.2°
Reaches altitude 10° 20:38:54 10° 202° (SSW) 3,100 9.9 -8.8°
Maximum altitude 20:41:30 12° 182° (S) 2,931 9.6 -9.1°
Drops below altitude 10° 20:44:05 10° 161° (SSE) 3,055 9.5 -9.4°
Enters shadow 20:44:55 - 155° (SSE) 3,153 9.6 -9.5°
